Weather History for Copenhagen, Denmark

Change the Weather History Date:

Saturday, December 15, 2012

  Actual Average Record
Temperature  
Mean Temperature 35 °F -  
Max Temperature 39 °F 38 °F 51 °F (2006)
Min Temperature 31 °F 30 °F 17 °F (2010)
Degree Days  
Heating Degree Days 30    
Moisture  
Dew Point 36 °F    
Average Humidity 96    
Maximum Humidity 100    
Minimum Humidity 86    
Precipitation  
Precipitation 0.12 in - - ()
Sea Level Pressure  
Sea Level Pressure 29.53 in    
Wind  
Wind Speed 19 mph ()    
Max Wind Speed 31 mph    
Max Gust Speed 43 mph    
Visibility 1.9 miles    
Events Rain , Snow    
Averages and records for this station are not official NWS values.
T = Trace of Precipitation, MM = Missing Value Source: Averaged Metar Reports

Daily Weather History Graph

Daily Weather History Graph

Search for Another Location

Airport:

Trip Planner

Search our weather history database for the weather conditions in past years. The results will help you decide how hot, cold, wet, or windy it might be!

Date:

Astronomy

Dec. 15, 2012 Rise Set
Actual Time 8:32 AM CET 3:36 PM CET
Civil Twilight 7:45 AM CET 4:23 PM CET
Nautical Twilight 6:57 AM CET 5:12 PM CET
Astronomical Twilight 6:12 AM CET 5:57 PM CET
Moon 9:54 AM CET (12/15) 6:42 PM CET (12/15)
Length of Visible Light 8h 37m
Length of Day
7h 04m
Waxing Crescent, 7% of the Moon is Illuminated
Dec 15
Waxing Crescent
Dec 20
First Quarter
Dec 28
Full
Jan 5
Last Quarter
Jan 11
New

Hourly Weather History & Observations

Time (CET) Temp. Windchill Dew Point Humidity Pressure Visibility Wind Dir Wind Speed Gust Speed Precip Events Conditions
12:20 AM 33.8 °F 20.3 °F 30.2 °F 87% 29.56 in 3.7 mi ESE 28.8 mph - N/A   Mostly Cloudy
12:50 AM 33.8 °F 20.5 °F 30.2 °F 87% 29.56 in 3.7 mi ESE 27.6 mph - N/A   Mostly Cloudy
1:00 AM 33 °F - 30 °F 86% 29.56 in 4 mi ESE 27.6 mph - -   Mist
1:50 AM 33.8 °F 20.3 °F 32.0 °F 93% 29.53 in 1.2 mi ESE 28.8 mph - N/A Rain , Snow Rain
2:20 AM 33.8 °F 20.3 °F 32.0 °F 93% 29.50 in 1.1 mi ESE 28.8 mph - N/A Rain Rain
2:50 AM 33.8 °F 20.5 °F 32.0 °F 93% 29.47 in 2.5 mi ESE 27.6 mph 39.1 mph N/A Rain Rain
2:54 AM 33.8 °F 20.3 °F 32.0 °F 93% 29.47 in 2.5 mi ESE 28.8 mph - N/A Rain Rain
3:20 AM 33.8 °F 20.1 °F 32.0 °F 93% 29.47 in 1.2 mi ESE 29.9 mph - N/A Rain Rain
3:50 AM 33.8 °F 19.9 °F 32.0 °F 93% 29.44 in 0.9 mi ESE 31.1 mph 42.6 mph N/A Rain Rain
4:00 AM 34 °F - 33 °F 94% 29.47 in 1 mi SE 31.1 mph - - Snow Heavy Snow
4:20 AM 33.8 °F 19.9 °F 32.0 °F 93% 29.44 in 0.9 mi SE 31.1 mph - N/A Rain Rain
4:50 AM 33.8 °F 20.5 °F 32.0 °F 93% 29.47 in 0.9 mi SE 27.6 mph - N/A Rain Rain
5:20 AM 33.8 °F 20.8 °F 33.8 °F 100% 29.44 in 0.9 mi SE 26.5 mph - N/A Rain Rain
5:50 AM 33.8 °F 20.8 °F 33.8 °F 100% 29.44 in 0.9 mi SE 26.5 mph - N/A Rain Rain
6:20 AM 33.8 °F 21.0 °F 33.8 °F 100% 29.44 in 1.2 mi SE 25.3 mph - N/A Rain Rain
6:50 AM 33.8 °F 21.3 °F 33.8 °F 100% 29.44 in 1.6 mi SE 24.2 mph - N/A Rain Rain
7:00 AM 35 °F - 34 °F 93% 29.47 in 2 mi SE 23.0 mph - - Snow Heavy Snow
7:20 AM 35.6 °F 24.5 °F 33.8 °F 93% 29.47 in 2.5 mi SSE 20.7 mph - N/A Rain , Snow Light Rain
7:50 AM 35.6 °F 24.8 °F 33.8 °F 93% 29.44 in 2.5 mi SSE 19.6 mph - N/A Rain , Snow Light Rain
8:20 AM 35.6 °F 25.2 °F 33.8 °F 93% 29.47 in 2.5 mi SSE 18.4 mph - N/A   Mostly Cloudy
8:50 AM 35.6 °F 24.8 °F 35.6 °F 100% 29.47 in 2.5 mi SSE 19.6 mph - N/A   Mostly Cloudy
9:20 AM 35.6 °F 25.5 °F 35.6 °F 100% 29.47 in 3.1 mi SSE 17.3 mph - N/A   Mostly Cloudy
9:50 AM 35.6 °F 25.5 °F 35.6 °F 100% 29.47 in 3.1 mi SSE 17.3 mph - N/A   Mostly Cloudy
10:00 AM 37 °F - 35 °F 87% 29.49 in 3 mi SSE 17.3 mph - -   Light Ice Pellets
10:20 AM 37.4 °F 27.8 °F 35.6 °F 93% 29.47 in 3.1 mi SSE 17.3 mph - N/A Rain Light Rain
10:50 AM 37.4 °F 28.5 °F 35.6 °F 93% 29.50 in 1.6 mi SSE 15.0 mph - N/A Rain Rain
11:20 AM 37.4 °F 28.9 °F 37.4 °F 100% 29.50 in 1.9 mi SSE 13.8 mph - N/A Rain Light Rain
11:50 AM 37.4 °F 28.5 °F 37.4 °F 100% 29.50 in 1.9 mi SSE 15.0 mph - N/A   Overcast
12:20 PM 37.4 °F 28.9 °F 35.6 °F 93% 29.50 in 2.5 mi SSE 13.8 mph - N/A   Overcast
12:50 PM 37.4 °F 29.3 °F 37.4 °F 100% 29.50 in 2.5 mi SSE 12.7 mph - N/A   Overcast
1:00 PM 38 °F - 37 °F 93% 29.53 in 2 mi SSE 13.8 mph - - Rain Light Rain
1:20 PM 37.4 °F 29.3 °F 37.4 °F 100% 29.53 in 2.5 mi South 12.7 mph - N/A   Overcast
1:50 PM 37.4 °F 30.8 °F 37.4 °F 100% 29.50 in 2.5 mi SSE 9.2 mph - N/A   Overcast
2:20 PM 39.2 °F 32.5 °F 37.4 °F 93% 29.53 in 2.5 mi SSE 10.4 mph - N/A   Overcast
2:50 PM 39.2 °F 33.0 °F 37.4 °F 93% 29.53 in 2.5 mi SSE 9.2 mph - N/A   Overcast
3:20 PM 39.2 °F 33.0 °F 37.4 °F 93% 29.53 in 2.5 mi SSE 9.2 mph - N/A   Overcast
3:50 PM 39.2 °F 33.6 °F 37.4 °F 93% 29.53 in 1.9 mi SSE 8.1 mph - N/A   Overcast
4:00 PM 38 °F - 38 °F 100% 29.57 in 2 mi SSE 9.2 mph - - Rain Light Rain
4:20 PM 39.2 °F 33.0 °F 37.4 °F 93% 29.56 in 1.9 mi SSE 9.2 mph - N/A   Overcast
4:50 PM 39.2 °F 34.2 °F 39.2 °F 100% 29.56 in 1.9 mi SE 6.9 mph - N/A   Overcast
5:20 PM 39.2 °F 33.0 °F 37.4 °F 93% 29.56 in 1.9 mi SE 9.2 mph - N/A   Overcast
5:50 PM 39.2 °F 33.0 °F 39.2 °F 100% 29.56 in 2.5 mi SE 9.2 mph - N/A   Overcast
6:20 PM 37.4 °F 29.8 °F 37.4 °F 100% 29.59 in 1.9 mi SE 11.5 mph - N/A   Overcast
6:50 PM 37.4 °F 29.8 °F 37.4 °F 100% 29.59 in 1.6 mi SE 11.5 mph - N/A   Overcast
7:00 PM 39 °F - 37 °F 92% 29.60 in 2 mi SSE 9.2 mph - -   Mist
7:20 PM 39.2 °F 33.6 °F 37.4 °F 93% 29.59 in 1.6 mi SE 8.1 mph - N/A   Overcast
7:50 PM 39.2 °F 32.5 °F 39.2 °F 100% 29.59 in 1.4 mi SE 10.4 mph - N/A   Mostly Cloudy
8:20 PM 39.2 °F 34.2 °F 37.4 °F 93% 29.59 in 1.6 mi SSE 6.9 mph - N/A   Mostly Cloudy
8:50 PM 39.2 °F 33.6 °F 39.2 °F 100% 29.62 in 1.7 mi SSE 8.1 mph - N/A   Mostly Cloudy
9:20 PM 39.2 °F 34.2 °F 39.2 °F 100% 29.62 in 1.4 mi SSE 6.9 mph - N/A   Mostly Cloudy
9:50 PM 39.2 °F 35.0 °F 39.2 °F 100% 29.62 in 1.2 mi SSE 5.8 mph - N/A   Light Drizzle
10:00 PM 39 °F - 39 °F 99% 29.63 in 1 mi SSE 6.9 mph - - Rain Light Drizzle
10:20 PM 39.2 °F 34.2 °F 39.2 °F 100% 29.62 in 1.1 mi SE 6.9 mph - N/A   Light Drizzle
10:50 PM 39.2 °F 33.6 °F 39.2 °F 100% 29.62 in 1.1 mi SE 8.1 mph - N/A   Light Drizzle
11:20 PM 37.4 °F 31.4 °F 37.4 °F 100% 29.62 in 1.0 mi SE 8.1 mph - N/A   Light Drizzle
11:50 PM 37.4 °F 31.4 °F 37.4 °F 100% 29.62 in 0.9 mi SE 8.1 mph - N/A   Light Drizzle